Location: Napa Junction
(38.1874°N, 122.2508°W)
Time: 11:47:40
(UTC+00:00)

Okean 1-7 Rocket - Pass Details

Date: 08 September 2024
Orbit: 611 x 646 km, 82.5° (Epoch: 11 October)

Event Time Altitude Azimuth Distance (km) Brightness Sun altitude
Rises 12:22:12 0° 352° (N) 2,941 7.2 -16.6°
Reaches altitude 10° 12:24:28 10° 353° (N) 2,023 6.4 -16.2°
Maximum altitude 12:28:57 89° 85° (E) 634 3.6 -15.4°
Drops below altitude 10° 12:33:22 10° 174° (S) 1,985 6.0 -14.6°
Sets 12:35:34 0° 174° (S) 2,882 6.9 -14.1°
